Total_Precipitation_Accumulation
0.13 0.13 0.13 0.12 0.12 0.12 0.13 0.16 0.21 0.26 0.27 0.24 0.23 0.22 0.22 0.23 0.30 0.23 0.19 0.24 0.22 0.21 0.21 0.20 0.21 0.22 0.24 0.26 0.29 0.31 0.32 0.32 0.33 0.35 0.40 0.47 0.55 0.62
0.12 0.12 0.13 0.14 0.15 0.16 0.17 0.18 0.19 0.23 0.26 0.23 0.21 0.20 0.21 0.21 0.24 0.18 0.18 0.22 0.18 0.18 0.18 0.19 0.18 0.18 0.18 0.21 0.24 0.26 0.26 0.26 0.26 0.27 0.29 0.32 0.39 0.47
0.18 0.18 0.19 0.19 0.18 0.17 0.16 0.16 0.15 0.18 0.23 0.23 0.21 0.20 0.21 0.22 0.21 0.19 0.19 0.20 0.19 0.19 0.19 0.18 0.17 0.16 0.17 0.19 0.20 0.21 0.21 0.20 0.20 0.21 0.23 0.25 0.27 0.31
0.20 0.19 0.18 0.17 0.18 0.18 0.17 0.17 0.17 0.19 0.21 0.21 0.18 0.16 0.16 0.16 0.17 0.18 0.15 0.14 0.15 0.15 0.16 0.16 0.15 0.16 0.16 0.15 0.14 0.13 0.12 0.12 0.13 0.15 0.18 0.21 0.24 0.26
0.16 0.15 0.13 0.12 0.12 0.11 0.11 0.10 0.09 0.10 0.13 0.16 0.15 0.13 0.12 0.13 0.18 0.18 0.17 0.21 0.15 0.15 0.14 0.13 0.12 0.11 0.09 0.08 0.08 0.08 0.07 0.06 0.06 0.07 0.09 0.12 0.16 0.18
0.07 0.06 0.05 0.05 0.07 0.08 0.08 0.08 0.09 0.11 0.13 0.17 0.17 0.15 0.14 0.14 0.23 0.25 0.21 0.21 0.18 0.12 0.12 0.11 0.09 0.07 0.06 0.06 0.06 0.05 0.05 0.04 0.04 0.05 0.05 0.05 0.06 0.07
0.02 0.02 0.02 0.03 0.05 0.06 0.06 0.08 0.13 0.17 0.18 0.21 0.20 0.18 0.16 0.21 0.26 0.26 0.23 0.19 0.16 0.13 0.18 0.19 0.20 0.21 0.21 0.16 0.10 0.06 0.04 0.03 0.03 0.03 0.03 0.04 0.04 0.04
0.02 0.03 0.02 0.03 0.02 0.02 0.05 0.10 0.16 0.19 0.20 0.23 0.23 0.25 0.25 0.27 0.29 0.27 0.28 0.29 0.28 0.22 0.26 0.23 0.23 0.26 0.26 0.25 0.18 0.09 0.06 0.05 0.04 0.03 0.02 0.02 0.03 0.03
0.04 0.05 0.03 0.02 0.03 0.05 0.06 0.07 0.09 0.10 0.15 0.23 0.30 0.31 0.33 0.35 0.37 0.35 0.37 0.39 0.37 0.31 0.38 0.35 0.26 0.26 0.21 0.17 0.15 0.11 0.09 0.07 0.05 0.04 0.03 0.02 0.02 0.03
0.04 0.05 0.05 0.06 0.06 0.06 0.05 0.06 0.11 0.14 0.14 0.16 0.26 0.29 0.28 0.29 0.33 0.36 0.39 0.42 0.43 0.42 0.47 0.46 0.29 0.26 0.21 0.26 0.23 0.15 0.11 0.10 0.08 0.06 0.05 0.03 0.03 0.03
0.04 0.03 0.04 0.07 0.07 0.07 0.07 0.12 0.18 0.22 0.12 0.10 0.16 0.22 0.25 0.28 0.29 0.34 0.48 0.59 0.54 0.42 0.45 0.50 0.39 0.31 0.26 0.30 0.27 0.19 0.15 0.13 0.09 0.07 0.07 0.07 0.07 0.07
0.06 0.08 0.06 0.06 0.05 0.05 0.06 0.15 0.23 0.25 0.23 0.27 0.35 0.39 0.41 0.48 0.45 0.45 0.59 0.65 0.61 0.57 0.50 0.52 0.48 0.45 0.42 0.31 0.30 0.29 0.28 0.23 0.15 0.13 0.10 0.10 0.13 0.16
0.09 0.16 0.16 0.08 0.05 0.05 0.07 0.13 0.19 0.17 0.24 0.40 0.48 0.48 0.49 0.55 0.54 0.49 0.55 0.61 0.66 0.72 0.58 0.56 0.54 0.54 0.57 0.43 0.28 0.26 0.31 0.36 0.37 0.36 0.31 0.23 0.19 0.19
0.14 0.18 0.17 0.09 0.07 0.10 0.11 0.15 0.17 0.24 0.38 0.50 0.53 0.51 0.49 0.49 0.49 0.45 0.48 0.54 0.61 0.63 0.57 0.57 0.61 0.59 0.55 0.46 0.37 0.28 0.31 0.42 0.54 0.64 0.61 0.48 0.35 0.28
0.12 0.11 0.12 0.13 0.15 0.26 0.24 0.21 0.28 0.42 0.51 0.54 0.56 0.53 0.46 0.41 0.38 0.36 0.40 0.49 0.56 0.49 0.41 0.41 0.50 0.49 0.48 0.46 0.45 0.41 0.37 0.40 0.55 0.69 0.74 0.69 0.57 0.43
0.10 0.14 0.22 0.28 0.32 0.39 0.43 0.48 0.50 0.50 0.46 0.51 0.52 0.45 0.34 0.31 0.32 0.33 0.38 0.44 0.52 0.50 0.38 0.32 0.36 0.40 0.44 0.40 0.41 0.44 0.41 0.51 0.58 0.67 0.79 0.83 0.70 0.50
0.07 0.19 0.35 0.41 0.47 0.50 0.53 0.57 0.59 0.52 0.46 0.45 0.45 0.42 0.35 0.32 0.31 0.28 0.33 0.37 0.44 0.46 0.39 0.32 0.31 0.31 0.29 0.28 0.36 0.39 0.39 0.48 0.61 0.69 0.78 0.92 0.89 0.66
0.13 0.28 0.35 0.39 0.43 0.43 0.43 0.47 0.52 0.51 0.44 0.40 0.40 0.37 0.33 0.32 0.32 0.30 0.31 0.35 0.42 0.40 0.35 0.30 0.26 0.24 0.24 0.25 0.34 0.41 0.42 0.55 0.66 0.66 0.63 0.76 0.97 0.86
0.24 0.34 0.35 0.37 0.41 0.38 0.37 0.42 0.46 0.42 0.35 0.33 0.32 0.30 0.27 0.26 0.27 0.29 0.28 0.29 0.30 0.29 0.27 0.22 0.20 0.23 0.26 0.34 0.44 0.58 0.59 0.58 0.58 0.57 0.57 0.67 0.90 0.91
0.32 0.32 0.32 0.34 0.37 0.37 0.33 0.32 0.32 0.28 0.24 0.24 0.25 0.22 0.21 0.22 0.23 0.25 0.22 0.19 0.22 0.24 0.24 0.20 0.17 0.21 0.28 0.36 0.58 0.74 0.70 0.52 0.45 0.54 0.65 0.71 0.83 0.83
0.26 0.27 0.28 0.28 0.29 0.32 0.28 0.24 0.21 0.18 0.16 0.16 0.17 0.18 0.18 0.18 0.18 0.18 0.15 0.10 0.14 0.18 0.22 0.22 0.20 0.19 0.21 0.22 0.39 0.62 0.68 0.73 0.64 0.60 0.65 0.63 0.55 0.44
0.22 0.24 0.22 0.19 0.21 0.21 0.17 0.16 0.16 0.14 0.12 0.11 0.12 0.12 0.12 0.13 0.13 0.11 0.10 0.10 0.11 0.11 0.15 0.17 0.16 0.15 0.17 0.21 0.35 0.52 0.54 0.51 0.51 0.56 0.58 0.44 0.29 0.30
0.21 0.20 0.18 0.16 0.15 0.14 0.12 0.10 0.09 0.09 0.09 0.11 0.10 0.08 0.07 0.07 0.06 0.04 0.04 0.04 0.04 0.04 0.06 0.10 0.10 0.10 0.11 0.13 0.19 0.26 0.26 0.22 0.16 0.18 0.34 0.45 0.40 0.44